Latest Coastal Weather Observations for Eucla

IDS60701

Issued at 10:21 pm CDT Wednesday 18 January 2017 (issued every 10 minutes, with the page automatically refreshed every 10 minutes)

About coastal observations | Map of coastal stations | Coastal observations for SA | Marine services | Other Formats
Station Details ID: 011003 Name: EUCLA Lat: -31.68 Lon: 128.90 Height: 93.1 m
Data from the previous 72 hours. | See also: Recent months at Eucla
Date/Time
CDT
Temp
°C
Wind Pressure Rain since
9am
mm
Weather Cloud Vis
km
Sea
Height
m
Swell
Dir  Spd
kts
Gust
kts
hPa Trend Height
m
Period
s
Dir
18/10:00pm 18.9 SE 12 17 1011.1 - 0.0 - - - - - - -
18/09:30pm 18.9 SE 12 17 1011.2 - 0.0 - - - - - - -
18/09:00pm 18.9 SE 12 17 1011.1 - 0.0 - - - - - - -
18/08:30pm 19.2 SE 12 18 1011.2 - 0.0 - - - - - - -
18/08:00pm 19.4 SE 13 20 1011.5 - 0.0 - - - - - - -
18/07:30pm 19.6 SE 11 18 1011.5 - 0.0 - - - - - - -
18/07:00pm 19.7 SE 13 19 1011.5 - 0.0 - - - - - - -
18/06:30pm 19.8 SE 11 18 1011.7 - 0.0 - - - - - - -
18/06:00pm 19.7 SE 13 18 1011.9 - 0.0 - - - - - - -
18/05:30pm 20.0 SE 11 18 1012.0 - 0.0 Haze Cloudy 15 - - - -
18/05:00pm 19.8 SE 11 18 1012.2 - 0.0 - - - - - - -
18/04:30pm 19.7 ESE 12 20 1012.4 - 0.0 - - - - - - -
18/04:00pm 20.0 ESE 14 21 1012.5 - 0.0 - - - - - - -
18/03:30pm 20.1 SE 13 18 1012.9 - 0.0 - - - - - - -
18/03:00pm 19.8 ESE 13 20 1013.1 - 0.0 - - - - - - -
18/02:30pm 20.0 SE 12 20 1013.2 - 0.0 - - - - - - -
18/02:00pm 19.9 SE 13 21 1013.8 - 0.0 - - - - - - -
18/01:30pm 19.7 SE 13 21 1014.1 - 0.0 - - - - - - -
18/01:00pm 19.5 SE 14 21 1014.2 - 0.0 - - - - - - -
18/12:30pm 19.5 SE 11 18 1014.5 - 0.0 - - - - - - -
18/12:00pm 19.7 SE 15 19 1014.5 - 0.0 - - - - - - -
18/11:30am 18.8 SE 13 20 1014.6 - 5.0 Distant precip. Cloudy 15 - - - -
18/11:00am 18.8 SE 12 18 1014.9 - 5.0 - - - - - - -
18/10:30am 18.4 SE 13 18 1015.0 - 4.8 - - - - - - -
18/10:00am 18.3 SE 13 20 1014.9 - 4.8 - - - - - - -
18/09:30am 17.8 SE 11 17 1015.4 - 4.8 - - - - - - -
18/09:00am 17.8 SE 11 19 1015.5 - 4.8 - - - - - - -
18/08:30am 17.8 SE 12 17 1015.3 - 4.8 - - - - - - -
18/08:00am 17.6 ESE 11 16 1015.1 - 4.8 - - - - - - -
18/07:30am 17.9 ESE 11 20 1014.6 - 4.8 - - - - - - -
18/07:00am 17.8 ESE 13 21 1014.0 - 4.8 - - - - - - -
18/06:30am 17.5 ESE 12 19 1013.4 - 4.8 - - - - - - -
18/06:00am 17.4 SE 11 20 1013.5 - 4.8 - - - - - - -
18/05:30am 17.4 SE 11 17 1013.0 - 4.8 Recent precip. - - - - - -
18/05:00am 17.3 SE 10 17 1013.6 - 4.8 - - - - - - -
18/04:30am 17.2 SE 10 17 1013.6 - 3.8 - - - - - - -
18/04:00am 17.3 SE 10 18 1013.8 - 3.2 - - - - - - -
18/03:30am 17.5 SSE 10 16 1014.0 - 0.6 - - - - - - -
18/03:00am 17.8 SE 10 16 1013.9 - 0.2 - - - - - - -
18/02:30am 18.4 SSE 13 19 1014.0 - 0.0 - - - - - - -
18/02:00am 18.6 SSE 11 17 1014.3 - 0.0 - - - - - - -
18/01:30am 18.8 SE 12 18 1014.1 - 0.0 - - - - - - -
18/01:00am 18.8 SE 11 17 1014.2 - 0.0 - - - - - - -
18/12:30am 18.8 SE 13 18 1014.3 - 0.0 - - - - - - -
18/12:00am 18.8 SE 13 19 1014.0 - 0.0 - - - - - - -
 
Date/Time
CDT
Temp
°C
Wind Pressure Rain since
9am
mm
Weather Cloud Vis
km
Sea
Height
m
Swell
Dir  Spd
kts
Gust
kts
hPa Trend Height
m
Period
s
Dir
17/11:30pm 18.8 SE 11 18 1014.2 - 0.0 - - - - - - -
17/11:00pm 18.6 SE 13 19 1014.0 - 0.0 - - - - - - -
17/10:30pm 18.6 SE 13 19 1013.9 - 0.0 - - - - - - -
17/10:00pm 18.7 SSE 12 19 1013.7 - 0.0 - - - - - - -
17/09:30pm 18.7 SE 13 20 1013.3 - 0.0 - - - - - - -
17/09:00pm 18.7 SSE 14 21 1013.0 - 0.0 - - - - - - -
17/08:30pm 19.1 SSE 15 23 1012.6 - 0.0 - - - - - - -
17/08:00pm 19.2 SSE 17 24 1012.5 - 0.0 - - - - - - -
17/07:30pm 19.3 SSE 16 25 1011.9 - 0.0 - - - - - - -
17/07:00pm 19.1 SSE 16 24 1011.7 - 0.0 - - - - - - -
17/06:33pm 19.6 SSE 15 25 1011.4 - 0.0 - - - - - - -
17/06:30pm 19.7 SSE 16 24 1011.4 - 0.0 - - - - - - -
17/06:16pm 19.4 SSE 15 25 1011.5 - 0.0 - - - - - - -
17/06:00pm 19.5 SSE 16 22 1011.4 - 0.0 - - - - - - -
17/05:30pm 20.2 SSE 14 20 1011.1 - 0.0 Drizzle Cloudy 5 - - - -
17/05:06pm 20.3 SSE 15 25 1010.6 - 0.0 - - - - - - -
17/05:00pm 20.7 SSE 14 20 1010.5 - 0.0 - - - - - - -
17/04:30pm 20.5 SSE 15 21 1010.7 - 0.0 - - - - - - -
17/04:00pm 20.9 SSE 15 25 1010.5 - 0.0 - - - - - - -
17/03:56pm 21.1 S 16 26 1010.5 - 0.0 - - - - - - -
17/03:30pm 21.4 S 15 24 1010.5 - 0.0 - - - - - - -
17/03:00pm 21.6 S 16 24 1010.2 - 0.0 - - - - - - -
17/02:34pm 21.8 S 15 25 1010.0 - 0.0 - - - - - - -
17/02:30pm 22.1 S 15 22 1010.0 - 0.0 - - - - - - -
17/02:00pm 22.5 S 16 22 1010.2 - 0.0 - - - - - - -
17/01:50pm 22.3 S 15 25 1010.2 - 0.0 - - - - - - -
17/01:30pm 22.0 SSW 15 22 1009.9 - 0.0 - - - - - - -
17/01:16pm 22.4 SSW 15 26 1009.8 - 0.0 - - - - - - -
17/01:00pm 23.1 SSW 16 23 1009.9 - 0.0 - - - - - - -
17/12:30pm 23.3 SSW 16 22 1009.8 - 0.0 - - - - - - -
17/12:00pm 22.7 SSW 15 25 1009.5 - 0.0 - - - - - - -
17/11:54am 23.1 SSW 15 25 1009.5 - 0.0 - - - - - - -
17/11:30am 22.2 SSW 15 21 1009.6 - 0.6 Distant precip. Cloudy 10 - - - -
17/11:00am 21.7 SSW 13 18 1009.3 - 0.6 - - - - - - -
17/10:30am 21.5 SSW 13 19 1008.6 - 0.6 - - - - - - -
17/10:00am 21.3 S 12 20 1007.6 - 0.6 - - - - - - -
17/09:30am 21.4 S 13 18 1006.8 - 0.6 - - - - - - -
17/09:00am 21.1 SSW 12 17 1006.5 - 0.6 - - - - - - -
17/08:30am 21.2 SSW 12 17 1006.4 - 0.6 - - - - - - -
17/08:00am 21.0 SSW 13 18 1006.1 - 0.6 - - - - - - -
17/07:30am 21.0 SW 13 20 1005.8 - 0.6 - - - - - - -
17/07:00am 21.2 SW 12 17 1005.3 - 0.6 - - - - - - -
17/06:30am 21.3 SW 12 18 1004.9 - 0.6 - - - - - - -
17/06:00am 21.7 SW 7 9 1004.3 - 0.6 - - - - - - -
17/05:30am 21.8 SSW 6 7 1004.0 - 0.6 - - - - - - -
17/05:00am 22.1 SSW 8 10 1003.9 - 0.6 - - - - - - -
17/04:30am 22.2 SW 8 11 1004.5 - 0.6 - - - - - - -
17/04:00am 23.7 WSW 11 16 1004.5 - 0.0 - - - - - - -
17/03:30am 23.9 SW 10 15 1003.5 - 0.0 - - - - - - -
17/03:00am 25.2 NNE 3 5 1003.0 - 0.0 - - - - - - -
17/02:30am 26.5 NNE 6 7 1003.1 - 0.0 - - - - - - -
17/02:00am 25.5 NNE 5 7 1003.4 - 0.0 - - - - - - -
17/01:30am 24.9 NE 4 6 1003.8 - 0.0 - - - - - - -
17/01:00am 24.6 E 4 6 1004.1 - 0.0 - - - - - - -
17/12:30am 24.5 ESE 7 10 1004.4 - 0.0 - - - - - - -
17/12:00am 24.4 SE 7 9 1004.5 - 0.0 - - - - - - -
 
Date/Time
CDT
Temp
°C
Wind Pressure Rain since
9am
mm
Weather Cloud Vis
km
Sea
Height
m
Swell
Dir  Spd
kts
Gust
kts
hPa Trend Height
m
Period
s
Dir
16/11:30pm 24.7 SE 7 9 1004.7 - 0.0 - - - - - - -
16/11:00pm 24.8 SE 6 10 1004.6 - 0.0 - - - - - - -
16/10:30pm 25.0 SSE 7 11 1004.5 - 0.0 - - - - - - -
16/10:00pm 24.8 SSE 6 9 1004.5 - 0.0 - - - - - - -
16/09:30pm 24.9 SSE 5 7 1004.5 - 0.0 - - - - - - -
16/09:00pm 25.5 SSE 5 7 1004.2 - 0.0 - - - - - - -
16/08:30pm 26.6 S 5 7 1004.0 - 0.0 - - - - - - -
16/08:00pm 27.6 SSE 6 8 1003.7 - 0.0 - - - - - - -
16/07:30pm 29.4 SE 7 13 1003.6 - 0.0 - - - - - - -
16/07:00pm 28.9 SSE 7 8 1003.6 - 0.0 - - - - - - -
16/06:30pm 33.4 SE 8 13 1003.5 - 0.0 - - - - - - -
16/06:00pm 34.5 SE 8 12 1003.4 - 0.0 - - - - - - -
16/05:30pm 34.0 SE 8 10 1003.6 - 0.0 Fine Mostly cloudy 40 - - - -
16/05:00pm 34.3 SE 10 14 1003.5 - 0.0 - - - - - - -
16/04:30pm 36.6 SSE 9 14 1003.6 - 0.0 - - - - - - -
16/04:17pm 36.0 S 9 15 1003.7 - 0.0 - - - - - - -
16/04:00pm 41.0 NNW 9 17 1003.7 - 0.0 - - - - - - -
16/03:30pm 40.8 NNW 9 17 1003.9 - 0.0 - - - - - - -
16/03:00pm 42.1 NW 11 20 1004.1 - 0.0 - - - - - - -
16/02:30pm 41.7 N 11 19 1004.4 - 0.0 - - - - - - -
16/02:00pm 40.6 NNW 12 20 1004.8 - 0.0 - - - - - - -
16/01:30pm 40.0 NNW 13 21 1005.2 - 0.0 - - - - - - -
16/01:04pm 39.3 NNW 15 26 1005.6 - 0.0 - - - - - - -
16/01:00pm 39.8 NNW 13 20 1005.5 - 0.0 - - - - - - -
16/12:48pm 39.2 NNW 15 25 1005.6 - 0.0 - - - - - - -
16/12:30pm 39.5 NNW 17 24 1005.8 - 0.0 - - - - - - -
16/12:00pm 37.7 N 13 18 1006.1 - 0.0 - - - - - - -
16/11:34am 35.9 N 17 27 1006.5 - 0.0 - - - - - - -
16/11:30am 35.8 N 17 24 1006.5 - 0.0 Fine Mostly clear 40 - - - -
16/11:18am 35.5 N 15 25 1006.6 - 0.0 - - - - - - -
16/11:00am 35.1 N 14 22 1006.8 - 0.0 - - - - - - -
16/10:48am 34.3 N 15 25 1006.9 - 0.0 - - - - - - -
16/10:30am 33.0 N 14 21 1007.1 - 0.0 - - - - - - -
16/10:00am 30.6 N 12 17 1007.5 - 0.0 - - - - - - -
16/09:30am 26.7 NNE 10 17 1007.9 - 0.0 - - - - - - -
16/09:00am 24.4 NNE 10 14 1008.0 - 0.0 - - - - - - -
16/08:30am 22.3 NNE 10 15 1008.1 - 0.0 - - - - - - -
16/08:00am 20.0 NNE 8 13 1008.3 - 0.0 - - - - - - -
16/07:30am 19.0 NNE 9 13 1008.1 - 0.0 - - - - - - -
16/07:00am 19.2 NNE 9 14 1008.0 - 0.0 - - - - - - -
16/06:30am 19.4 NNE 10 14 1007.9 - 0.0 - - - - - - -
16/06:00am 19.7 NE 11 16 1007.8 - 0.0 - - - - - - -
16/05:30am 19.8 NE 11 16 1007.7 - 0.0 - - - - - - -
16/05:00am 19.4 NE 10 15 1007.8 - 0.0 - - - - - - -
16/04:30am 18.6 NE 9 14 1007.9 - 0.0 - - - - - - -
16/04:00am 18.0 NE 9 13 1008.2 - 0.0 - - - - - - -
16/03:30am 17.5 NE 10 14 1008.3 - 0.0 - - - - - - -
16/03:00am 17.3 NE 8 11 1008.7 - 0.0 - - - - - - -
16/02:30am 17.6 NE 8 11 1009.1 - 0.0 - - - - - - -
16/02:00am 18.1 NE 8 11 1009.3 - 0.0 - - - - - - -
16/01:30am 18.2 NE 8 11 1009.7 - 0.0 - - - - - - -
16/01:00am 18.5 ENE 8 11 1010.0 - 0.0 - - - - - - -

Other Formats:

Comma delimited format used in spreadsheet applications
http://www.bom.gov.au/fwo/IDS60701/IDS60701.94647.axf

JavaScript Object Notation format (JSON) in row-major order
http://www.bom.gov.au/fwo/IDS60701/IDS60701.94647.json